When you browse on this site, cookies collect data to enhance your experience and personalize the content and advertising you see.
Visit our Privacy Policy to learn more. By continuing to use the site, you agree to this use of cookies and data.
  • Em Portugal
  • Lista de países
  • Para 7 dias
  • Temperatura da água
  • Mapa do tempo
  • Widgets de tempo
  • user-avatar
    Iniciar Sessão

    Previsão horária em Baku

    Hoje, 21 Agosto, Quarta-feira

    Tempo Temperatura Precipitação Vento Pressão Humidade
    00:00 +31°C° 0 mm 1 m/s 760 mmHg 32%
    01:00 +30°C° 0 mm 1 m/s 760 mmHg 33%
    02:00 +30°C° 0 mm 1 m/s 759 mmHg 34%
    03:00 +29°C° 0 mm 1 m/s 760 mmHg 36%
    04:00 +29°C° 0 mm 1 m/s 760 mmHg 36%
    05:00 +30°C° 0 mm 1 m/s 760 mmHg 35%
    06:00 +30°C° 0 mm 1 m/s 760 mmHg 34%
    07:00 +31°C° 0 mm 1 m/s 760 mmHg 31%
    08:00 +32°C° 0 mm 1 m/s 760 mmHg 28%
    09:00 +34°C° 0 mm 1 m/s 760 mmHg 25%
    10:00 +36°C° 0 mm 2 m/s 760 mmHg 24%
    11:00 +36°C° 0 mm 3 m/s 760 mmHg 24%
    12:00 +37°C° 0 mm 4 m/s 759 mmHg 23%
    13:00 +37°C° 0 mm 4 m/s 759 mmHg 24%
    14:00 +39°C° 0 mm 5 m/s 759 mmHg 24%
    15:00 +39°C° 0 mm 5 m/s 758 mmHg 24%
    16:00 +37°C° 0 mm 5 m/s 758 mmHg 25%
    17:00 +36°C° 0 mm 4 m/s 758 mmHg 25%
    18:00 +35°C° 0 mm 3 m/s 758 mmHg 26%
    19:00 +35°C° 0 mm 2 m/s 758 mmHg 27%
    20:00 +34°C° 0 mm 2 m/s 758 mmHg 28%
    21:00 +33°C° 0 mm 1 m/s 758 mmHg 28%
    22:00 +32°C° 0 mm 1 m/s 758 mmHg 29%
    23:00 +31°C° 0 mm 2 m/s 757 mmHg 30%

    Amanhã, 22 Agosto, Quinta-feira

    Tempo Temperatura Precipitação Vento Pressão Humidade
    00:00 +31°C° 0 mm 2 m/s 757 mmHg 31%
    01:00 +30°C° 0 mm 1 m/s 757 mmHg 33%
    02:00 +30°C° 0 mm 1 m/s 757 mmHg 35%
    03:00 +27°C° 0 mm 0 m/s 757 mmHg 37%
    04:00 +28°C° 0 mm 0 m/s 757 mmHg 36%
    05:00 +28°C° 0 mm 0 m/s 757 mmHg 35%
    06:00 +28°C° 0 mm 0 m/s 757 mmHg 33%
    07:00 +29°C° 0 mm 0 m/s 757 mmHg 30%
    08:00 +31°C° 0 mm 0 m/s 757 mmHg 27%
    09:00 +34°C° 0 mm 1 m/s 757 mmHg 24%
    10:00 +35°C° 0 mm 1 m/s 757 mmHg 23%
    11:00 +37°C° 0 mm 2 m/s 757 mmHg 21%
    12:00 +38°C° 0 mm 2 m/s 757 mmHg 20%
    13:00 +38°C° 0 mm 2 m/s 756 mmHg 19%
    14:00 +39°C° 0 mm 3 m/s 756 mmHg 19%
    15:00 +39°C° 0 mm 3 m/s 756 mmHg 19%
    16:00 +38°C° 0 mm 3 m/s 756 mmHg 20%
    17:00 +38°C° 0 mm 3 m/s 756 mmHg 21%
    18:00 +37°C° 0 mm 3 m/s 756 mmHg 21%
    19:00 +36°C° 0 mm 2 m/s 756 mmHg 24%
    20:00 +35°C° 0 mm 2 m/s 756 mmHg 26%
    21:00 +34°C° 0 mm 2 m/s 756 mmHg 28%
    22:00 +34°C° 0 mm 2 m/s 756 mmHg 29%
    23:00 +32°C° 0 mm 1 m/s 756 mmHg 31%

    Depois de amanhã, 23 Agosto, Sexta-feira

    Tempo Temperatura Precipitação Vento Pressão Humidade
    00:00 +32°C° 0 mm 1 m/s 757 mmHg 32%
    01:00 +31°C° 0 mm 1 m/s 756 mmHg 34%
    02:00 +29°C° 0 mm 0 m/s 756 mmHg 35%
    03:00 +28°C° 0 mm 0 m/s 756 mmHg 36%
    04:00 +31°C° 0 mm 1 m/s 756 mmHg 35%
    05:00 +31°C° 0 mm 1 m/s 757 mmHg 35%
    06:00 +31°C° 0 mm 2 m/s 757 mmHg 34%
    07:00 +32°C° 0 mm 2 m/s 757 mmHg 32%
    08:00 +34°C° 0 mm 2 m/s 757 mmHg 30%
    09:00 +35°C° 0 mm 2 m/s 757 mmHg 28%
    10:00 +36°C° 0 mm 2 m/s 757 mmHg 27%
    11:00 +37°C° 0 mm 3 m/s 757 mmHg 26%
    12:00 +38°C° 0 mm 3 m/s 757 mmHg 25%
    13:00 +38°C° 0 mm 3 m/s 757 mmHg 24%
    14:00 +40°C° 0 mm 4 m/s 756 mmHg 24%
    15:00 +40°C° 0 mm 4 m/s 756 mmHg 23%
    16:00 +40°C° 0 mm 4 m/s 756 mmHg 24%
    17:00 +38°C° 0 mm 4 m/s 756 mmHg 25%
    18:00 +37°C° 0 mm 4 m/s 756 mmHg 26%
    19:00 +36°C° 0 mm 3 m/s 756 mmHg 28%
    20:00 +35°C° 0 mm 3 m/s 756 mmHg 31%
    21:00 +34°C° 0 mm 3 m/s 757 mmHg 33%
    22:00 +34°C° 0 mm 2 m/s 757 mmHg 35%
    23:00 +32°C° 0 mm 1 m/s 756 mmHg 36%

    24 Agosto, Sábado

    Tempo Temperatura Precipitação Vento Pressão Humidade
    00:00 +30°C° 0 mm 0 m/s 756 mmHg 37%
    01:00 +32°C° 0 mm 1 m/s 756 mmHg 37%
    02:00 +31°C° 0 mm 2 m/s 756 mmHg 38%
    03:00 +31°C° 0 mm 2 m/s 756 mmHg 38%
    04:00 +31°C° 0 mm 2 m/s 756 mmHg 39%
    05:00 +31°C° 0 mm 2 m/s 756 mmHg 40%
    06:00 +31°C° 0 mm 3 m/s 757 mmHg 41%
    07:00 +33°C° 0 mm 3 m/s 757 mmHg 39%
    08:00 +35°C° 0 mm 4 m/s 757 mmHg 37%
    09:00 +36°C° 0 mm 5 m/s 757 mmHg 34%
    10:00 +36°C° 0 mm 5 m/s 757 mmHg 33%
    11:00 +37°C° 0 mm 5 m/s 757 mmHg 31%
    12:00 +37°C° 0 mm 5 m/s 757 mmHg 30%
    13:00 +37°C° 0 mm 5 m/s 757 mmHg 29%
    14:00 +39°C° 0 mm 5 m/s 757 mmHg 28%
    15:00 +39°C° 0 mm 5 m/s 757 mmHg 27%
    16:00 +37°C° 0 mm 4 m/s 757 mmHg 27%
    17:00 +37°C° 0 mm 3 m/s 756 mmHg 27%
    18:00 +36°C° 0 mm 3 m/s 756 mmHg 28%
    19:00 +35°C° 0 mm 3 m/s 757 mmHg 29%
    20:00 +35°C° 0 mm 3 m/s 757 mmHg 30%
    21:00 +34°C° 0 mm 3 m/s 758 mmHg 30%
    22:00 +33°C° 0 mm 3 m/s 758 mmHg 33%
    23:00 +33°C° 0 mm 4 m/s 758 mmHg 35%

    25 Agosto, Domingo

    Tempo Temperatura Precipitação Vento Pressão Humidade
    00:00 +32°C° 0 mm 4 m/s 758 mmHg 37%
    01:00 +32°C° 0 mm 4 m/s 758 mmHg 39%
    02:00 +31°C° 0 mm 3 m/s 757 mmHg 40%
    03:00 +30°C° 0 mm 3 m/s 757 mmHg 42%
    04:00 +30°C° 0 mm 2 m/s 758 mmHg 41%
    05:00 +30°C° 0 mm 2 m/s 758 mmHg 41%
    06:00 +30°C° 0 mm 2 m/s 758 mmHg 40%
    07:00 +31°C° 0 mm 2 m/s 758 mmHg 35%
    08:00 +34°C° 0 mm 2 m/s 758 mmHg 30%
    09:00 +35°C° 0 mm 3 m/s 758 mmHg 25%
    10:00 +36°C° 0 mm 3 m/s 758 mmHg 23%
    11:00 +36°C° 0 mm 3 m/s 758 mmHg 21%
    12:00 +37°C° 0 mm 4 m/s 758 mmHg 19%
    13:00 +37°C° 0 mm 4 m/s 758 mmHg 19%
    14:00 +37°C° 0 mm 4 m/s 757 mmHg 18%
    15:00 +37°C° 0 mm 4 m/s 757 mmHg 18%
    16:00 +36°C° 0 mm 4 m/s 757 mmHg 19%
    17:00 +36°C° 0 mm 4 m/s 757 mmHg 19%
    18:00 +35°C° 0 mm 3 m/s 757 mmHg 20%
    19:00 +34°C° 0 mm 3 m/s 757 mmHg 22%
    20:00 +33°C° 0 mm 3 m/s 757 mmHg 24%
    21:00 +32°C° 0 mm 2 m/s 757 mmHg 26%
    22:00 +31°C° 0 mm 2 m/s 757 mmHg 27%
    23:00 +30°C° 0 mm 1 m/s 757 mmHg 29%

    26 Agosto, Segunda-feira

    Tempo Temperatura Precipitação Vento Pressão Humidade
    00:00 +30°C° 0 mm 1 m/s 757 mmHg 31%
    01:00 +30°C° 0 mm 1 m/s 757 mmHg 31%
    02:00 +29°C° 0 mm 1 m/s 757 mmHg 32%
    03:00 +29°C° 0 mm 2 m/s 757 mmHg 32%
    04:00 +29°C° 0 mm 2 m/s 757 mmHg 33%
    05:00 +29°C° 0 mm 2 m/s 757 mmHg 34%
    06:00 +29°C° 0 mm 2 m/s 757 mmHg 36%
    07:00 +30°C° 0 mm 2 m/s 757 mmHg 35%
    08:00 +30°C° 0 mm 3 m/s 757 mmHg 35%
    09:00 +32°C° 0 mm 4 m/s 758 mmHg 34%
    10:00 +33°C° 0 mm 5 m/s 758 mmHg 34%
    11:00 +33°C° 0 mm 5 m/s 758 mmHg 33%
    12:00 +34°C° 0 mm 6 m/s 758 mmHg 33%
    13:00 +33°C° 0 mm 6 m/s 758 mmHg 36%
    14:00 +33°C° 0 mm 7 m/s 758 mmHg 38%
    15:00 +33°C° 0 mm 8 m/s 757 mmHg 41%
    16:00 +32°C° 0 mm 8 m/s 757 mmHg 43%
    17:00 +31°C° 0 mm 9 m/s 758 mmHg 46%
    18:00 +29°C° 0 mm 9 m/s 758 mmHg 48%
    19:00 +29°C° 0 mm 9 m/s 758 mmHg 49%
    20:00 +29°C° 0 mm 9 m/s 758 mmHg 49%
    21:00 +29°C° 0 mm 9 m/s 759 mmHg 49%
    22:00 +29°C° 0 mm 9 m/s 759 mmHg 47%
    23:00 +29°C° 0 mm 9 m/s 759 mmHg 45%
    Mostrar mais